Change the Weather History Date:

Tuesday, June 11, 2013

  Actual Average (KAKO) Record (KAKO)
Temperature  
Mean Temperature 68 °F 66 °F  
Max Temperature 83 °F 79 °F 104 °F (2013)
Min Temperature 53 °F 52 °F 31 °F (1947)
Degree Days  
Heating Degree Days 0    
Month to date heating degree days  
Cooling Degree Days 3    
Month to date cooling degree days  
Growing Degree Days 18 (Base 50)    
Moisture  
Dew Point 42 °F    
Average Humidity 41    
Maximum Humidity 68    
Minimum Humidity 15    
Precipitation  
Precipitation 0.00 in 0.09 in 1.49 in (1970)
Month to date precipitation 1.06  
Year to date precipitation 7.24  
Sea Level Pressure  
Sea Level Pressure 29.84 in    
Wind  
Wind Speed 7 mph (NNW)    
Max Wind Speed 18 mph    
Max Gust Speed 28 mph    
Visibility 10 miles    
Events      
T = Trace of Precipitation, MM = Missing Value Source: NWS Daily Summary

Daily Weather History Graph

Daily Weather History Graph

Search for Another Location

Airport or City:

Trip Planner

Search our weather history database for the weather conditions in past years. The results will help you decide how hot, cold, wet, or windy it might be!

Date:

Astronomy

Jun. 11, 2013 Rise Set
Actual Time 5:24 AM MDT 8:25 PM MDT
Civil Twilight 4:51 AM MDT 8:58 PM MDT
Nautical Twilight 4:10 AM MDT 9:40 PM MDT
Astronomical Twilight 3:21 AM MDT 10:29 PM MDT
Moon 8:10 AM MDT (6/11) 10:29 PM MDT (6/11)
Length of Visible Light 16h 06m
Length of Day
15h 00m
Waxing Crescent, 8% of the Moon is Illuminated
Jun 11
Waxing Crescent
Jun 16
First Quarter
Jun 23
Full
Jun 29
Last Quarter
Jul 8
New

Hourly Weather History & Observations

Time (MDT) Temp. Dew Point Humidity Pressure Visibility Wind Dir Wind Speed Gust Speed Precip Events Conditions
12:15 AM 69.8 °F 37.6 °F 31% 29.87 in 10.0 mi NE 6.9 mph - N/A   Clear
12:35 AM 69.3 °F 37.4 °F 31% 29.87 in 10.0 mi ENE 3.5 mph - N/A   Clear
12:55 AM 70.9 °F 37.6 °F 30% 29.88 in 10.0 mi SE 3.5 mph - N/A   Clear
1:15 AM 63.7 °F 39.9 °F 42% 29.89 in 10.0 mi WSW 4.6 mph - N/A   Clear
1:35 AM 63.0 °F 39.9 °F 43% 29.87 in 10.0 mi West 4.6 mph - N/A   Clear
1:55 AM 64.2 °F 39.4 °F 40% 29.86 in 10.0 mi NNW 3.5 mph - N/A   Clear
2:55 AM 63.5 °F 40.6 °F 43% 29.85 in 10.0 mi North 11.5 mph - N/A   Clear
3:15 AM 63.3 °F 41.2 °F 44% 29.85 in 10.0 mi North 9.2 mph - N/A   Clear
3:35 AM 63.5 °F 41.7 °F 45% 29.85 in 10.0 mi North 10.4 mph - N/A   Clear
3:55 AM 63.0 °F 42.4 °F 47% 29.85 in 10.0 mi North 12.7 mph - N/A   Clear
4:15 AM 63.1 °F 43.2 °F 48% 29.85 in 10.0 mi North 10.4 mph - N/A   Clear
4:35 AM 62.6 °F 43.9 °F 50% 29.86 in 10.0 mi North 11.5 mph - N/A   Clear
4:55 AM 62.1 °F 44.4 °F 52% 29.86 in 10.0 mi WSW 5.8 mph - N/A   Clear
5:15 AM 56.3 °F 43.3 °F 62% 29.87 in 10.0 mi West 3.5 mph - N/A   Clear
5:35 AM 53.4 °F 43.2 °F 68% 29.88 in 10.0 mi West 4.6 mph - N/A   Clear
5:55 AM 54.1 °F 43.7 °F 68% 29.88 in 10.0 mi WNW 8.1 mph - N/A   Clear
6:15 AM 56.7 °F 44.6 °F 64% 29.89 in 10.0 mi West 4.6 mph - N/A   Clear
6:35 AM 58.5 °F 45.7 °F 62% 29.90 in 10.0 mi SW 3.5 mph - N/A   Clear
6:55 AM 60.6 °F 45.7 °F 58% 29.89 in 10.0 mi West 3.5 mph - N/A   Clear
7:15 AM 63.5 °F 47.3 °F 56% 29.90 in 10.0 mi Calm Calm - N/A   Clear
7:35 AM 64.6 °F 46.4 °F 52% 29.91 in 10.0 mi SW 9.2 mph - N/A   Clear
7:55 AM 65.5 °F 46.6 °F 50% 29.91 in 10.0 mi WSW 6.9 mph - N/A   Clear
8:15 AM 68.2 °F 47.1 °F 47% 29.90 in 10.0 mi West 3.5 mph - N/A   Clear
8:35 AM 70.9 °F 47.5 °F 43% 29.90 in 10.0 mi West 4.6 mph - N/A   Clear
8:55 AM 73.6 °F 46.9 °F 39% 29.89 in 10.0 mi Calm Calm - N/A   Clear
9:15 AM 76.3 °F 45.3 °F 33% 29.89 in 10.0 mi Calm Calm - N/A   Clear
9:35 AM 81.0 °F 46.0 °F 29% 29.89 in 10.0 mi SW 4.6 mph - N/A   Clear
9:55 AM 83.5 °F 41.7 °F 23% 29.88 in 10.0 mi WSW 6.9 mph - N/A   Clear
10:15 AM - - N/A% 29.87 in 10.0 mi WNW 5.8 mph - N/A   Clear
10:35 AM - - N/A% 29.86 in 10.0 mi Calm Calm - N/A   Clear
10:55 AM - - N/A% 29.85 in 10.0 mi Calm Calm - N/A   Clear
11:15 AM - - N/A% 29.85 in 10.0 mi SE 3.5 mph - N/A   Clear
11:35 AM - - N/A% 29.84 in 10.0 mi Calm Calm - N/A   Clear
11:55 AM - - N/A% 29.83 in 10.0 mi Calm Calm - N/A   Clear
12:15 PM - - N/A% 29.82 in 10.0 mi Calm Calm - N/A   Clear
12:35 PM - - N/A% 29.81 in 10.0 mi NE 4.6 mph - N/A   Clear
12:55 PM - - N/A% 29.80 in 10.0 mi SW 5.8 mph - N/A   Clear
1:15 PM - - N/A% 29.79 in 10.0 mi West 10.4 mph 16.1 mph N/A   Clear
1:35 PM - - N/A% 29.78 in 10.0 mi NW 9.2 mph 17.3 mph N/A   Clear
1:55 PM - - N/A% 29.77 in 10.0 mi West 9.2 mph 16.1 mph N/A   Clear
2:15 PM - - N/A% 29.76 in 10.0 mi Calm Calm - N/A   Clear
2:35 PM - - N/A% 29.75 in 10.0 mi SSW 6.9 mph - N/A   Clear
2:55 PM - - N/A% 29.75 in 10.0 mi SSE 6.9 mph - N/A   Clear
3:15 PM - - N/A% 29.74 in 10.0 mi Calm Calm - N/A   Clear
3:35 PM - - N/A% 29.74 in 10.0 mi West 9.2 mph - N/A   Clear
3:55 PM - - N/A% 29.74 in 10.0 mi NNW 5.8 mph - N/A   Clear
4:15 PM - - N/A% 29.74 in 10.0 mi NE 12.7 mph 18.4 mph N/A   Clear
4:35 PM - - N/A% 29.74 in 10.0 mi NE 16.1 mph 21.9 mph N/A   Clear
4:55 PM - - N/A% 29.74 in 10.0 mi NE 17.3 mph 25.3 mph N/A   Clear
5:15 PM - - N/A% 29.74 in 10.0 mi ENE 16.1 mph 27.6 mph N/A   Clear
5:35 PM - - N/A% 29.73 in 10.0 mi NE 18.4 mph - N/A   Clear
5:55 PM - - N/A% 29.74 in 10.0 mi NE 15.0 mph - N/A   Clear
6:15 PM - - N/A% 29.74 in 10.0 mi NE 13.8 mph - N/A   Clear
6:35 PM - - N/A% 29.76 in 10.0 mi NE 8.1 mph - N/A   Clear
6:55 PM - - N/A% 29.77 in 10.0 mi NNW 11.5 mph - N/A   Clear
7:15 PM - - N/A% 29.80 in 10.0 mi NNE 13.8 mph 23.0 mph N/A   Clear
7:35 PM - - N/A% 29.80 in 10.0 mi NE 9.2 mph 17.3 mph N/A   Clear
7:55 PM - - N/A% 29.81 in 10.0 mi NE 9.2 mph - N/A   Clear
8:15 PM - - N/A% 29.82 in 10.0 mi NE 11.5 mph - N/A   Clear
8:35 PM - - N/A% 29.84 in 10.0 mi NNE 5.8 mph - N/A   Clear
8:55 PM - - N/A% 29.86 in 10.0 mi NNW 4.6 mph - N/A   Clear
9:15 PM 75.7 °F 41.5 °F 29% 29.88 in 10.0 mi North 10.4 mph - N/A   Clear
9:35 PM 76.5 °F 48.6 °F 37% 29.90 in 10.0 mi North 9.2 mph - N/A   Clear
9:55 PM 75.4 °F 50.9 °F 42% 29.91 in 10.0 mi NNW 10.4 mph - N/A   Clear
10:15 PM 73.8 °F 50.4 °F 44% 29.92 in 10.0 mi NNW 12.7 mph - N/A   Clear
10:35 PM 77.0 °F 35.1 °F 22% 29.94 in 10.0 mi NW 15.0 mph - N/A   Clear
10:55 PM 77.9 °F 26.6 °F 15% 29.94 in 10.0 mi NW 13.8 mph - N/A   Clear
11:15 PM 76.1 °F 25.3 °F 15% 29.95 in 10.0 mi NNW 12.7 mph - N/A   Clear
11:35 PM 75.7 °F 25.0 °F 15% 29.96 in 10.0 mi NNW 13.8 mph - N/A   Clear
11:55 PM 75.2 °F 24.4 °F 15% 29.96 in 10.0 mi NNW 16.1 mph - N/A   Clear